DKH9910 ZLLL-ZUGY

Flight info

Callsign DKH9910
Flight time 1h 45m
Altitude 33100
Route IRMUB7Z IRMUB B330 QNX QNX8Y
Aircraft A321/M-SDE3FGHIRWY/LB1

Departure

Time 2026-04-28 13:21
Airport Lanzhou Zhongchuan International Airport (ZLLL)

Arrival

Time 2026-04-28 15:06
Airport Guiyang Longdongbao International Airport (ZUGY)
Time Latitude Longitude Altitude Speed Heading
2026-04-28 12:41 36.52789 103.63931 6385 ft 0 kts 281°
2026-04-28 13:04 36.52785 103.63953 6386 ft 4 kts 281°
2026-04-28 13:04 36.52780 103.63986 6387 ft 4 kts 282°
2026-04-28 13:04 36.52775 103.64017 6390 ft 0 kts 282°
2026-04-28 13:08 36.52782 103.64008 6387 ft 2 kts 332°
2026-04-28 13:08 36.52817 103.64015 6388 ft 10 kts
2026-04-28 13:08 36.52921 103.64010 6390 ft 21 kts 356°
2026-04-28 13:08 36.53065 103.64000 6390 ft 16 kts 357°
2026-04-28 13:09 36.53136 103.63981 6391 ft 8 kts 318°
2026-04-28 13:09 36.53142 103.63922 6390 ft 9 kts 266°
2026-04-28 13:09 36.53136 103.63790 6392 ft 21 kts 267°
2026-04-28 13:09 36.53128 103.63570 6393 ft 28 kts 267°
2026-04-28 13:10 36.53117 103.63329 6392 ft 27 kts 266°
2026-04-28 13:10 36.53108 103.63101 6394 ft 27 kts 267°
2026-04-28 13:10 36.53098 103.62859 6392 ft 27 kts 267°
2026-04-28 13:10 36.53089 103.62638 6391 ft 20 kts 267°
2026-04-28 13:11 36.53055 103.62586 6400 ft 9 kts 175°
2026-04-28 13:11 36.52960 103.62594 6391 ft 17 kts 178°
2026-04-28 13:11 36.52820 103.62603 6389 ft 23 kts 177°
2026-04-28 13:11 36.52662 103.62612 6388 ft 22 kts 177°
2026-04-28 13:12 36.52500 103.62623 6384 ft 26 kts 177°
2026-04-28 13:12 36.52325 103.62635 6381 ft 25 kts 177°
2026-04-28 13:12 36.52155 103.62645 6371 ft 24 kts 176°
2026-04-28 13:12 36.51991 103.62656 6370 ft 23 kts 177°
2026-04-28 13:13 36.51833 103.62666 6366 ft 22 kts 177°
2026-04-28 13:13 36.51680 103.62675 6367 ft 22 kts 178°
2026-04-28 13:13 36.51534 103.62684 6362 ft 20 kts 177°
2026-04-28 13:13 36.51396 103.62693 6355 ft 19 kts 177°
2026-04-28 13:14 36.51269 103.62701 6356 ft 18 kts 177°
2026-04-28 13:14 36.51148 103.62708 6356 ft 17 kts 177°
2026-04-28 13:14 36.51035 103.62716 6355 ft 16 kts 177°
2026-04-28 13:14 36.50908 103.62724 6355 ft 21 kts 177°
2026-04-28 13:15 36.50744 103.62734 6353 ft 25 kts 177°
2026-04-28 13:15 36.50577 103.62745 6350 ft 24 kts 177°
2026-04-28 13:15 36.50399 103.62756 6346 ft 27 kts 177°
2026-04-28 13:15 36.50219 103.62768 6343 ft 26 kts 177°
2026-04-28 13:16 36.50043 103.62779 6340 ft 25 kts 177°
2026-04-28 13:16 36.49873 103.62789 6338 ft 24 kts 177°
2026-04-28 13:16 36.49712 103.62799 6336 ft 23 kts 177°
2026-04-28 13:16 36.49606 103.62806 6333 ft 10 kts 178°
2026-04-28 13:17 36.49576 103.62751 6333 ft 7 kts 266°
2026-04-28 13:17 36.49574 103.62701 6334 ft 4 kts 267°
2026-04-28 13:17 36.49574 103.62678 6334 ft 5 kts 268°
2026-04-28 13:17 36.49613 103.62606 6336 ft 9 kts 351°
2026-04-28 13:18 36.49628 103.62605 6336 ft 0 kts 357°
2026-04-28 13:19 36.49631 103.62605 6336 ft 7 kts 357°
2026-04-28 13:20 36.49940 103.62584 6339 ft 80 kts 357°
2026-04-28 13:20 36.50708 103.62535 6354 ft 138 kts 357°
2026-04-28 13:20 36.51828 103.62465 6367 ft 183 kts 356°
2026-04-28 13:20 36.52699 103.62398 6634 ft 190 kts 355°
2026-04-28 13:21 36.54004 103.62313 7466 ft 188 kts
2026-04-28 13:21 36.55317 103.62241 8147 ft 189 kts 360°
2026-04-28 13:21 36.56621 103.62166 8588 ft 188 kts 359°
2026-04-28 13:21 36.57929 103.62086 8976 ft 188 kts 359°
2026-04-28 13:22 36.59666 103.61977 9470 ft 189 kts
2026-04-28 13:22 36.61023 103.61893 9632 ft 203 kts 359°
2026-04-28 13:22 36.61981 103.61834 9730 ft 213 kts 359°
2026-04-28 13:22 36.63511 103.61738 9875 ft 227 kts 359°
2026-04-28 13:23 36.65138 103.61635 10028 ft 241 kts 358°
2026-04-28 13:23 36.66766 103.60989 10156 ft 258 kts 324°
2026-04-28 13:23 36.67873 103.59167 10254 ft 278 kts 287°
2026-04-28 13:23 36.67979 103.56723 10433 ft 293 kts 253°
2026-04-28 13:24 36.66986 103.54522 10873 ft 296 kts 225°
2026-04-28 13:24 36.65422 103.52853 11445 ft 297 kts 213°
2026-04-28 13:24 36.63733 103.51428 12072 ft 298 kts 212°
2026-04-28 13:24 36.62009 103.49988 12727 ft 299 kts 213°
2026-04-28 13:25 36.60325 103.48470 13413 ft 300 kts 216°
2026-04-28 13:25 36.58680 103.46858 14071 ft 301 kts 217°
2026-04-28 13:25 36.56862 103.45599 14595 ft 303 kts 194°
2026-04-28 13:25 36.54756 103.45421 15078 ft 307 kts 178°
2026-04-28 13:26 36.52608 103.45565 15567 ft 311 kts 178°
2026-04-28 13:26 36.50433 103.45726 16045 ft 316 kts 178°
2026-04-28 13:26 36.48224 103.45892 16517 ft 320 kts 178°
2026-04-28 13:26 36.45982 103.46062 16935 ft 327 kts 178°
2026-04-28 13:27 36.43684 103.46226 17057 ft 343 kts 179°
2026-04-28 13:27 36.41250 103.46384 17186 ft 358 kts 179°
2026-04-28 13:27 36.38711 103.46537 17318 ft 373 kts 179°
2026-04-28 13:27 36.36085 103.46929 17444 ft 388 kts 168°
2026-04-28 13:28 36.33518 103.48117 17672 ft 400 kts 153°
2026-04-28 13:28 36.31214 103.50100 18044 ft 408 kts 138°
2026-04-28 13:28 36.29339 103.52759 18434 ft 413 kts 124°
2026-04-28 13:28 36.27728 103.55678 18788 ft 418 kts 124°
2026-04-28 13:29 36.26080 103.58664 19153 ft 421 kts 124°
2026-04-28 13:29 36.24415 103.61671 19528 ft 425 kts 124°
2026-04-28 13:29 36.22734 103.64698 19905 ft 428 kts 125°
2026-04-28 13:29 36.21040 103.67744 20283 ft 431 kts 125°
2026-04-28 13:30 36.19334 103.70811 20622 ft 435 kts 125°
2026-04-28 13:30 36.17608 103.73914 20948 ft 440 kts 125°
2026-04-28 13:30 36.15865 103.77038 21311 ft 443 kts 126°
2026-04-28 13:30 36.14106 103.80185 21672 ft 446 kts 126°
2026-04-28 13:31 36.10581 103.86498 22434 ft 452 kts 126°
2026-04-28 13:31 36.08794 103.89702 22813 ft 454 kts 126°
2026-04-28 13:31 36.06990 103.92931 23171 ft 458 kts 126°
2026-04-28 13:32 36.05174 103.96174 23537 ft 461 kts 126°
2026-04-28 13:32 36.03346 103.99438 23862 ft 464 kts 126°
2026-04-28 13:32 36.01502 104.02727 24137 ft 467 kts 126°
2026-04-28 13:32 35.99647 104.06030 24435 ft 469 kts 126°
2026-04-28 13:33 35.97780 104.09350 24724 ft 471 kts 126°
2026-04-28 13:33 35.95929 104.12637 24993 ft 474 kts 127°
2026-04-28 13:33 35.94043 104.15982 25282 ft 476 kts 127°
2026-04-28 13:33 35.92146 104.19340 25557 ft 479 kts 127°
2026-04-28 13:34 35.90240 104.22717 25836 ft 481 kts 127°
2026-04-28 13:34 35.88305 104.26097 26082 ft 483 kts 130°
2026-04-28 13:34 35.86046 104.29145 26338 ft 481 kts 141°
2026-04-28 13:34 35.83404 104.31636 26601 ft 477 kts 152°
2026-04-28 13:35 35.80480 104.33515 26864 ft 472 kts 163°
2026-04-28 13:35 35.77414 104.34746 27120 ft 467 kts 173°
2026-04-28 13:35 35.74223 104.35350 27379 ft 462 kts 182°
2026-04-28 13:35 35.71021 104.35445 27649 ft 461 kts 185°
2026-04-28 13:36 35.67813 104.35494 27914 ft 462 kts 185°
2026-04-28 13:36 35.64589 104.35544 28173 ft 464 kts 185°
2026-04-28 13:36 35.61357 104.35593 28437 ft 466 kts 185°
2026-04-28 13:36 35.58113 104.35642 28703 ft 467 kts 185°
2026-04-28 13:37 35.54857 104.35694 28968 ft 469 kts 185°
2026-04-28 13:37 35.51592 104.35747 29205 ft 470 kts 185°
2026-04-28 13:37 35.48360 104.35800 29446 ft 472 kts 185°
2026-04-28 13:37 35.45074 104.35855 29714 ft 472 kts 185°
2026-04-28 13:38 35.41800 104.35908 30060 ft 471 kts 186°
2026-04-28 13:38 35.38527 104.35962 30377 ft 469 kts 185°
2026-04-28 13:38 35.35270 104.36015 30692 ft 468 kts 185°
2026-04-28 13:38 35.32021 104.36067 30995 ft 466 kts 185°
2026-04-28 13:39 35.28782 104.36120 31300 ft 465 kts 185°
2026-04-28 13:39 35.25554 104.36173 31629 ft 463 kts 185°
2026-04-28 13:39 35.22380 104.36225 31957 ft 462 kts 185°
2026-04-28 13:39 35.19171 104.36277 32260 ft 461 kts 186°
2026-04-28 13:40 35.15970 104.36328 32582 ft 459 kts 186°
2026-04-28 13:40 35.12781 104.36377 32850 ft 458 kts 185°
2026-04-28 13:40 35.09600 104.36426 33150 ft 457 kts 185°
2026-04-28 13:40 35.06422 104.36477 33281 ft 455 kts 185°
2026-04-28 13:41 35.00156 104.36577 33299 ft 448 kts 186°
2026-04-28 13:41 34.93929 104.36669 33295 ft 447 kts 186°
2026-04-28 13:42 34.87747 104.36762 33275 ft 447 kts 185°
2026-04-28 13:42 34.81531 104.36866 33294 ft 446 kts 185°
2026-04-28 13:43 34.75320 104.36967 33295 ft 446 kts 185°
2026-04-28 13:43 34.69109 104.37061 33299 ft 446 kts 185°
2026-04-28 13:44 34.62941 104.37154 33284 ft 446 kts 185°
2026-04-28 13:44 34.56732 104.37252 33300 ft 446 kts 185°
2026-04-28 13:45 34.50537 104.37351 33299 ft 445 kts 185°
2026-04-28 13:45 34.44343 104.37453 33305 ft 445 kts 185°
2026-04-28 13:46 34.38183 104.37551 33293 ft 445 kts 185°
2026-04-28 13:46 34.31998 104.37648 33316 ft 444 kts 185°
2026-04-28 13:47 34.25823 104.37745 33310 ft 443 kts 185°
2026-04-28 13:47 34.19667 104.37841 33310 ft 442 kts 185°
2026-04-28 13:48 34.13515 104.37935 33283 ft 442 kts 185°
2026-04-28 13:48 34.07409 104.38029 33283 ft 440 kts 185°
2026-04-28 13:49 34.01283 104.38128 33283 ft 440 kts 185°
2026-04-28 13:49 33.95163 104.38216 33281 ft 440 kts 185°
2026-04-28 13:50 33.89047 104.38312 33271 ft 439 kts 185°
2026-04-28 13:50 33.82976 104.38410 33289 ft 439 kts 185°
2026-04-28 13:51 33.76888 104.38505 33291 ft 436 kts 186°
2026-04-28 13:51 33.70831 104.38593 33284 ft 434 kts 186°
2026-04-28 13:52 33.64784 104.38692 33276 ft 435 kts 184°
2026-04-28 13:52 33.58819 104.40169 33270 ft 451 kts 165°
2026-04-28 13:53 33.53242 104.43829 33283 ft 459 kts 156°
2026-04-28 13:53 33.47780 104.47768 33283 ft 457 kts 156°
2026-04-28 13:54 33.42332 104.51687 33259 ft 456 kts 157°
2026-04-28 13:54 33.36650 104.54540 33252 ft 438 kts 174°
2026-04-28 13:55 33.30703 104.55332 33227 ft 428 kts 184°
2026-04-28 13:55 33.24753 104.55703 33242 ft 428 kts 184°
2026-04-28 13:56 33.18800 104.56102 33251 ft 429 kts 184°
2026-04-28 13:56 33.12841 104.56492 33256 ft 429 kts 184°
2026-04-28 13:57 33.06924 104.56876 33262 ft 429 kts 184°
2026-04-28 13:57 33.00972 104.57249 33260 ft 428 kts 184°
2026-04-28 13:58 32.95030 104.57619 33260 ft 427 kts 184°
2026-04-28 13:58 32.89082 104.57992 33271 ft 428 kts 184°
2026-04-28 13:59 32.83183 104.58361 33245 ft 427 kts 183°
2026-04-28 13:59 32.77258 104.58740 33255 ft 426 kts 184°
2026-04-28 14:00 32.71333 104.59073 33266 ft 425 kts 184°
2026-04-28 14:00 32.65427 104.59324 33271 ft 425 kts 185°
2026-04-28 14:01 32.59551 104.59555 33276 ft 425 kts 185°
2026-04-28 14:01 32.53638 104.59809 33242 ft 426 kts 184°
2026-04-28 14:02 32.47714 104.60081 33255 ft 426 kts 184°
2026-04-28 14:02 32.41784 104.60362 33267 ft 427 kts 184°
2026-04-28 14:03 32.35851 104.60660 33267 ft 427 kts 184°
2026-04-28 14:03 32.29957 104.60989 33252 ft 427 kts 184°
2026-04-28 14:04 32.24022 104.61326 33254 ft 427 kts 184°
2026-04-28 14:04 32.18088 104.61655 33251 ft 427 kts 184°
2026-04-28 14:05 32.12147 104.61983 33265 ft 428 kts 184°
2026-04-28 14:05 32.06239 104.62306 33264 ft 428 kts 184°
2026-04-28 14:06 32.00292 104.62627 33254 ft 428 kts 184°
2026-04-28 14:06 31.94352 104.62951 33256 ft 427 kts 184°
2026-04-28 14:07 31.88416 104.63269 33261 ft 427 kts 184°
2026-04-28 14:07 31.82481 104.63589 33260 ft 427 kts 184°
2026-04-28 14:08 31.76583 104.63907 33243 ft 427 kts 184°
2026-04-28 14:08 31.70644 104.64161 33258 ft 427 kts 184°
2026-04-28 14:09 31.64714 104.64383 33263 ft 426 kts 184°
2026-04-28 14:09 31.58783 104.64603 33266 ft 426 kts 184°
2026-04-28 14:10 31.52898 104.64830 33264 ft 426 kts 184°
2026-04-28 14:10 31.46974 104.65064 33246 ft 425 kts 184°
2026-04-28 14:11 31.41066 104.65300 33262 ft 424 kts 184°
2026-04-28 14:11 31.35169 104.65536 33264 ft 424 kts 184°
2026-04-28 14:12 31.29320 104.65765 33265 ft 423 kts 184°
2026-04-28 14:12 31.23440 104.65991 33264 ft 423 kts 184°
2026-04-28 14:13 31.17554 104.66225 33246 ft 423 kts 184°
2026-04-28 14:13 31.11670 104.66457 33252 ft 423 kts 184°
2026-04-28 14:14 31.05780 104.66685 33257 ft 423 kts 184°
2026-04-28 14:14 30.99926 104.67115 33260 ft 426 kts 180°
2026-04-28 14:15 30.94031 104.67845 33232 ft 426 kts 179°
2026-04-28 14:15 30.88127 104.68598 33239 ft 427 kts 179°
2026-04-28 14:16 30.82208 104.69288 33244 ft 428 kts 179°
2026-04-28 14:16 30.76313 104.69935 33250 ft 428 kts 180°
2026-04-28 14:17 30.70374 104.70590 33255 ft 429 kts 179°
2026-04-28 14:17 30.64431 104.71262 33240 ft 429 kts 179°
2026-04-28 14:18 30.58479 104.71937 33247 ft 430 kts 179°
2026-04-28 14:18 30.52556 104.72605 33261 ft 431 kts 179°
2026-04-28 14:19 30.46586 104.73272 33269 ft 431 kts 179°
2026-04-28 14:19 30.40613 104.73936 33285 ft 431 kts 179°
2026-04-28 14:20 30.34641 104.74591 33289 ft 431 kts 179°
2026-04-28 14:20 30.28715 104.75243 33290 ft 431 kts 179°
2026-04-28 14:21 30.22752 104.75906 33267 ft 430 kts 179°
2026-04-28 14:21 30.16791 104.76568 33264 ft 430 kts 179°
2026-04-28 14:22 30.10839 104.77240 33245 ft 430 kts 179°
2026-04-28 14:22 30.04923 104.77902 33254 ft 430 kts 179°
2026-04-28 14:23 29.98953 104.78559 33255 ft 431 kts 179°
2026-04-28 14:23 29.92981 104.79210 33257 ft 431 kts 179°
2026-04-28 14:24 29.87007 104.79866 33264 ft 431 kts 179°
2026-04-28 14:24 29.81068 104.80527 33250 ft 432 kts 179°
2026-04-28 14:25 29.75093 104.81178 33261 ft 431 kts 179°
2026-04-28 14:25 29.69117 104.81837 33267 ft 431 kts 179°
2026-04-28 14:26 29.63139 104.82498 33272 ft 431 kts 179°
2026-04-28 14:26 29.57169 104.83147 33274 ft 431 kts 179°
2026-04-28 14:27 29.51237 104.83796 33262 ft 431 kts 179°
2026-04-28 14:27 29.45263 104.84453 33269 ft 431 kts 179°
2026-04-28 14:28 29.39298 104.85106 33274 ft 431 kts 179°
2026-04-28 14:28 29.33345 104.86048 33274 ft 437 kts 169°
2026-04-28 14:29 29.27688 104.88643 33272 ft 443 kts 161°
2026-04-28 14:29 29.22045 104.91495 33253 ft 443 kts 162°
2026-04-28 14:30 29.16395 104.94342 33247 ft 444 kts 162°
2026-04-28 14:30 29.10742 104.97195 33248 ft 444 kts 162°
2026-04-28 14:31 29.05124 105.00028 33259 ft 445 kts 162°
2026-04-28 14:31 28.99458 105.02883 33258 ft 445 kts 162°
2026-04-28 14:32 28.93792 105.05736 33252 ft 445 kts 162°
2026-04-28 14:32 28.88131 105.08581 33256 ft 445 kts 162°
2026-04-28 14:33 28.82504 105.11389 33264 ft 444 kts 162°
2026-04-28 14:33 28.76848 105.14237 33265 ft 445 kts 161°
2026-04-28 14:34 28.68577 105.19183 33268 ft 449 kts 157°
2026-04-28 14:35 28.63152 105.22607 33249 ft 448 kts 158°
2026-04-28 14:35 28.57665 105.25961 33257 ft 447 kts 159°
2026-04-28 14:36 28.52158 105.29265 33254 ft 447 kts 159°
2026-04-28 14:36 28.46654 105.32570 33260 ft 448 kts 159°
2026-04-28 14:37 28.41144 105.35892 33257 ft 448 kts 159°
2026-04-28 14:37 28.35674 105.39187 33243 ft 448 kts 159°
2026-04-28 14:38 28.30172 105.42492 33262 ft 447 kts 159°
2026-04-28 14:38 28.24675 105.45786 33278 ft 447 kts 159°
2026-04-28 14:39 28.19180 105.49075 33286 ft 446 kts 159°
2026-04-28 14:39 28.13739 105.52333 33277 ft 445 kts 159°
2026-04-28 14:40 28.08257 105.55610 33274 ft 445 kts 160°
2026-04-28 14:40 28.02534 105.57840 33259 ft 429 kts 177°
2026-04-28 14:41 27.96640 105.58760 33264 ft 428 kts 178°
2026-04-28 14:41 27.90785 105.59679 33267 ft 428 kts 178°
2026-04-28 14:42 27.84894 105.60619 33269 ft 428 kts 178°
2026-04-28 14:42 27.79052 105.62078 33266 ft 438 kts 165°
2026-04-28 14:43 27.73565 105.65250 33224 ft 445 kts 158°
2026-04-28 14:43 27.68151 105.68544 33234 ft 445 kts 159°
2026-04-28 14:44 27.62611 105.71610 33243 ft 443 kts 162°
2026-04-28 14:44 27.56987 105.74450 33249 ft 443 kts 162°
2026-04-28 14:45 27.51362 105.77289 33249 ft 443 kts 162°
2026-04-28 14:45 27.45786 105.80169 33249 ft 444 kts 161°
2026-04-28 14:46 27.40193 105.83101 33246 ft 444 kts 161°
2026-04-28 14:46 27.34629 105.86151 33101 ft 446 kts 160°
2026-04-28 14:46 27.31866 105.87704 32598 ft 443 kts 160°
2026-04-28 14:47 27.29117 105.89253 32038 ft 441 kts 160°
2026-04-28 14:47 27.26412 105.90770 31493 ft 439 kts 160°
2026-04-28 14:47 27.23679 105.92289 30933 ft 438 kts 160°
2026-04-28 14:47 27.20944 105.93795 30373 ft 437 kts 160°
2026-04-28 14:48 27.18215 105.95290 29774 ft 436 kts 160°
2026-04-28 14:48 27.15500 105.96777 29238 ft 433 kts 160°
2026-04-28 14:48 27.12807 105.98251 28745 ft 429 kts 159°
2026-04-28 14:48 27.10133 105.99717 28208 ft 426 kts 159°
2026-04-28 14:49 27.07477 106.01182 27684 ft 425 kts 158°
2026-04-28 14:49 27.04967 106.02946 27154 ft 429 kts 147°
2026-04-28 14:49 27.02749 106.05212 26641 ft 434 kts 136°
2026-04-28 14:49 27.00867 106.07861 26089 ft 435 kts 131°
2026-04-28 14:50 26.99069 106.10523 25586 ft 433 kts 131°
2026-04-28 14:50 26.97247 106.13200 25078 ft 431 kts 132°
2026-04-28 14:50 26.95429 106.15858 24585 ft 428 kts 131°
2026-04-28 14:50 26.93623 106.18500 24100 ft 426 kts 131°
2026-04-28 14:51 26.91824 106.21134 23592 ft 424 kts 131°
2026-04-28 14:51 26.90038 106.23742 23109 ft 420 kts 131°
2026-04-28 14:51 26.88273 106.26324 22664 ft 415 kts 131°
2026-04-28 14:51 26.86531 106.28874 22204 ft 410 kts 131°
2026-04-28 14:52 26.84830 106.31365 21763 ft 405 kts 131°
2026-04-28 14:52 26.83128 106.33858 21312 ft 401 kts 131°
2026-04-28 14:52 26.81435 106.36328 20859 ft 399 kts 131°
2026-04-28 14:52 26.79750 106.38783 20405 ft 397 kts 130°
2026-04-28 14:53 26.78075 106.41228 19961 ft 395 kts 130°
2026-04-28 14:53 26.76417 106.43671 19510 ft 393 kts 130°
2026-04-28 14:53 26.74769 106.46110 19056 ft 392 kts 129°
2026-04-28 14:53 26.73128 106.48543 18597 ft 391 kts 129°
2026-04-28 14:54 26.71514 106.50934 18106 ft 389 kts 129°
2026-04-28 14:54 26.69889 106.53339 17662 ft 386 kts 129°
2026-04-28 14:54 26.68276 106.55723 17230 ft 383 kts 129°
2026-04-28 14:54 26.66673 106.58087 16790 ft 380 kts 129°
2026-04-28 14:55 26.65081 106.60431 16362 ft 377 kts 129°
2026-04-28 14:55 26.63502 106.62754 15939 ft 374 kts 129°
2026-04-28 14:55 26.61851 106.64972 15522 ft 369 kts 139°
2026-04-28 14:55 26.59835 106.66691 15107 ft 362 kts 153°
2026-04-28 14:56 26.57589 106.67781 14708 ft 355 kts 167°
2026-04-28 14:56 26.55186 106.68251 14342 ft 347 kts 180°
2026-04-28 14:56 26.52834 106.68099 14226 ft 332 kts 192°
2026-04-28 14:56 26.50596 106.67667 14109 ft 321 kts 192°
2026-04-28 14:57 26.48428 106.67249 13856 ft 311 kts 192°
2026-04-28 14:57 26.47025 106.66978 13322 ft 309 kts 192°
2026-04-28 14:57 26.44208 106.66430 12281 ft 305 kts 192°
2026-04-28 14:57 26.42120 106.66015 11609 ft 307 kts 191°
2026-04-28 14:58 26.39981 106.65592 10986 ft 314 kts 190°
2026-04-28 14:58 26.37927 106.65191 10717 ft 296 kts 190°
2026-04-28 14:58 26.35887 106.64796 10592 ft 289 kts 189°
2026-04-28 14:58 26.33957 106.64455 10448 ft 279 kts 182°
2026-04-28 14:59 26.32121 106.64814 10336 ft 261 kts 150°
2026-04-28 14:59 26.30762 106.66034 10120 ft 249 kts 123°
2026-04-28 14:59 26.30108 106.67769 9677 ft 240 kts 96°
2026-04-28 14:59 26.29839 106.69541 9292 ft 224 kts 96°
2026-04-28 15:00 26.29577 106.71190 8963 ft 209 kts 97°
2026-04-28 15:00 26.29384 106.72745 8656 ft 200 kts 84°
2026-04-28 15:00 26.29722 106.74199 8375 ft 191 kts 58°
2026-04-28 15:00 26.30573 106.75280 8095 ft 185 kts 33°
2026-04-28 15:01 26.31738 106.75835 7836 ft 183 kts 10°
2026-04-28 15:01 26.32990 106.76073 7584 ft 182 kts
2026-04-28 15:01 26.34233 106.76315 7343 ft 181 kts 11°
2026-04-28 15:01 26.35469 106.76555 7112 ft 179 kts 10°
2026-04-28 15:02 26.36639 106.76782 6912 ft 162 kts
2026-04-28 15:02 26.37730 106.76994 6707 ft 156 kts
2026-04-28 15:02 26.38779 106.77198 6497 ft 154 kts
2026-04-28 15:02 26.39833 106.77403 6298 ft 153 kts
2026-04-28 15:03 26.40883 106.77607 6085 ft 153 kts
2026-04-28 15:03 26.41932 106.77811 5881 ft 152 kts
2026-04-28 15:03 26.42974 106.78014 5690 ft 152 kts
2026-04-28 15:03 26.44013 106.78216 5457 ft 151 kts
2026-04-28 15:04 26.45059 106.78420 5251 ft 152 kts
2026-04-28 15:04 26.46097 106.78621 5018 ft 150 kts
2026-04-28 15:04 26.47129 106.78820 4837 ft 150 kts
2026-04-28 15:04 26.48163 106.79025 4624 ft 154 kts
2026-04-28 15:05 26.49191 106.79224 4406 ft 152 kts
2026-04-28 15:05 26.50240 106.79427 4197 ft 151 kts 10°
2026-04-28 15:05 26.51281 106.79618 3975 ft 153 kts
2026-04-28 15:05 26.52322 106.79826 3805 ft 151 kts
2026-04-28 15:06 26.53277 106.80011 3745 ft 108 kts
2026-04-28 15:06 26.53724 106.80098 3741 ft 30 kts
2026-04-28 15:06 26.53907 106.80133 3740 ft 24 kts
2026-04-28 15:06 26.54049 106.80161 3741 ft 19 kts 10°
2026-04-28 15:07 26.54183 106.80185 3742 ft 18 kts
2026-04-28 15:07 26.54288 106.80183 3742 ft 12 kts 354°
2026-04-28 15:07 26.54358 106.80165 3743 ft 10 kts 342°
2026-04-28 15:07 26.54407 106.80148 3743 ft 5 kts 342°
2026-04-28 15:08 26.54435 106.80139 3743 ft 8 kts 342°
2026-04-28 15:08 26.54522 106.80109 3742 ft 16 kts 343°
2026-04-28 15:08 26.54617 106.80087 3741 ft 12 kts 358°
2026-04-28 15:08 26.54680 106.80095 3741 ft 6 kts
2026-04-28 15:09 26.54733 106.80105 3741 ft 11 kts 10°
2026-04-28 15:09 26.54837 106.80125 3741 ft 18 kts
2026-04-28 15:09 26.54944 106.80146 3740 ft 15 kts 10°
2026-04-28 15:09 26.55014 106.80160 3740 ft 16 kts 10°
2026-04-28 15:10 26.55177 106.80191 3739 ft 21 kts 10°
2026-04-28 15:10 26.55313 106.80218 3739 ft 20 kts
2026-04-28 15:10 26.55451 106.80245 3739 ft 18 kts
2026-04-28 15:10 26.55522 106.80245 3738 ft 6 kts 318°
2026-04-28 15:11 26.55528 106.80224 3738 ft 1 kts 283°
2026-04-28 15:11 26.55529 106.80224 3738 ft 0 kts 283°
2026-04-28 15:11 26.55532 106.80206 3738 ft 5 kts 283°
2026-04-28 15:11 26.55533 106.80155 3738 ft 5 kts 255°
2026-04-28 15:12 26.55517 106.80124 3738 ft 6 kts 235°
2026-04-28 15:12 26.55493 106.80085 3738 ft 4 kts 235°
2026-04-28 15:12 26.55481 106.80068 3738 ft 3 kts 234°
2026-04-28 15:12 26.55478 106.80063 3738 ft 0 kts 234°